Date,Installs,Update checks
2021-08-31,13,0
2021-09-01,15,12
2021-09-02,16,11
2021-09-03,9,17
2021-09-04,8,21
2021-09-05,14,17
2021-09-06,11,31
2021-09-07,7,36
2021-09-08,14,35
2021-09-09,13,35
2021-09-10,18,38
2021-09-11,23,47
2021-09-12,17,58
2021-09-13,18,65
2021-09-14,19,56
2021-09-15,15,55
2021-09-16,22,65
2021-09-17,20,66
2021-09-18,15,72
2021-09-19,22,84
2021-09-20,20,88
2021-09-21,23,93
2021-09-22,20,98
2021-09-23,17,101
2021-09-24,28,117
2021-09-25,21,126
2021-09-26,21,118
2021-09-27,26,133
2021-09-28,23,135
2021-09-29,22,146
2021-09-30,16,139
2021-10-01,19,154
2021-10-02,22,136
2021-10-03,22,150
2021-10-04,21,167
2021-10-05,31,173
2021-10-06,16,181
2021-10-07,23,180
2021-10-08,20,185
2021-10-09,32,213
2021-10-10,14,202
2021-10-11,16,200
2021-10-12,12,219
2021-10-13,23,229
2021-10-14,27,223
2021-10-15,19,206
2021-10-16,22,237
2021-10-17,20,233
2021-10-18,22,244
2021-10-19,28,236
2021-10-20,23,235
2021-10-21,25,265
2021-10-22,20,268
2021-10-23,9,267
2021-10-24,28,247
2021-10-25,35,273
2021-10-26,33,278
2021-10-27,27,254
2021-10-28,24,296
2021-10-29,15,268
2021-10-30,21,282
2021-10-31,25,262
2021-11-01,19,276
2021-11-02,31,287
2021-11-03,13,315
2021-11-04,24,313
2021-11-05,33,309
2021-11-06,28,295
2021-11-07,33,292
2021-11-08,32,323
2021-11-09,32,333
2021-11-10,27,338
2021-11-11,32,355
2021-11-12,33,339
2021-11-13,20,339
2021-11-14,40,335
2021-11-15,27,363
2021-11-16,21,359
2021-11-17,22,365
2021-11-18,20,373
2021-11-19,24,393
2021-11-20,27,384
2021-11-21,27,369
2021-11-22,22,385
2021-11-23,26,388
2021-11-24,26,371
2021-11-25,30,404
2021-11-26,28,394
2021-11-27,30,377
2021-11-28,28,392
2021-11-29,37,421
2021-11-30,53,435
2021-12-01,21,438
2021-12-02,35,436
2021-12-03,34,448
2021-12-04,33,442
2021-12-05,37,432
2021-12-06,45,468
2021-12-07,38,455
2021-12-08,26,441
2021-12-09,36,458
2021-12-10,36,474
2021-12-11,25,428
2021-12-12,35,444
2021-12-13,45,498
2021-12-14,39,500
2021-12-15,32,483
2021-12-16,40,488
2021-12-17,50,495
2021-12-18,38,488
2021-12-19,56,471
2021-12-20,43,518
2021-12-21,48,500
2021-12-22,59,539
2021-12-23,54,497
2021-12-24,49,522
2021-12-25,59,529
2021-12-26,43,513
2021-12-27,55,548
2021-12-28,52,527
2021-12-29,36,572
2021-12-30,38,564
2021-12-31,55,534
2022-01-01,55,519
2022-01-02,53,549
2022-01-03,46,626
2022-01-04,48,603
2022-01-05,52,610
2022-01-06,59,641
2022-01-07,50,614
2022-01-08,53,633
2022-01-09,56,41
2022-01-10,57,0
2022-01-11,44,683
2022-01-12,50,679
2022-01-13,59,695
2022-01-14,57,689
2022-01-15,60,651
2022-01-16,54,663
2022-01-17,57,717
2022-01-18,50,728
2022-01-19,55,730
2022-01-20,54,716
2022-01-21,69,742
2022-01-22,66,696
2022-01-23,50,690
2022-01-24,58,755
2022-01-25,70,786
2022-01-26,55,796
2022-01-27,59,790
2022-01-28,58,782
2022-01-29,61,743
2022-01-30,61,716
2022-01-31,73,745
2022-02-01,48,760
2022-02-02,516,842
2022-02-03,366,1002
2022-02-04,323,1083
2022-02-05,292,1149
2022-02-06,268,1224
2022-02-07,427,1350
2022-02-08,347,1491
2022-02-09,347,1509
2022-02-10,435,1608
2022-02-11,311,1619
2022-02-12,252,1639
2022-02-13,281,1660
2022-02-14,241,1822
2022-02-15,273,1887
2022-02-16,241,1853
2022-02-17,354,1976
2022-02-18,282,1974
2022-02-19,245,1985
2022-02-20,270,1950
2022-02-21,248,2073
2022-02-22,255,2121
2022-02-23,238,2122
2022-02-24,204,2140
2022-02-25,207,2039
2022-02-26,205,2054
2022-02-27,255,2080
2022-02-28,223,2182
2022-03-01,198,2254
2022-03-02,204,2237
2022-03-03,212,2203
2022-03-04,205,2267
2022-03-05,219,2237
2022-03-06,224,2204
2022-03-07,207,2360
2022-03-08,497,2363
2022-03-09,510,2419
2022-03-10,300,2312
2022-03-11,287,2312
2022-03-12,310,2357
2022-03-13,306,2335
2022-03-14,324,2525
2022-03-15,308,2506
2022-03-16,280,2517
2022-03-17,292,2546
2022-03-18,269,2556
2022-03-19,321,2508
2022-03-20,275,2533
2022-03-21,313,2658
2022-03-22,275,2688
2022-03-23,252,2689
2022-03-24,289,2792
2022-03-25,339,2765
2022-03-26,331,2716
2022-03-27,264,2720
2022-03-28,304,2935
2022-03-29,260,2937
2022-03-30,268,2931
2022-03-31,243,2998
2022-04-01,245,2875
2022-04-02,244,2860
2022-04-03,233,2816
2022-04-04,304,2973
2022-04-05,258,3037
2022-04-06,273,3046
2022-04-07,263,3065
2022-04-08,253,3094
2022-04-09,259,3024
2022-04-10,270,2957
2022-04-11,288,3098
2022-04-12,289,3196
2022-04-13,258,3246
2022-04-14,252,3132
2022-04-15,245,3072
2022-04-16,272,2985
2022-04-17,224,3007
2022-04-18,208,3162
2022-04-19,213,3157
2022-04-20,253,3164
2022-04-21,233,3167
2022-04-22,208,3151
2022-04-23,211,3040
2022-04-24,238,3001
2022-04-25,217,3177
2022-04-26,203,3153
2022-04-27,204,3174
2022-04-28,205,3093
2022-04-29,214,3090
2022-04-30,195,2985
2022-05-01,182,2820
2022-05-02,166,2884
2022-05-03,228,2949
2022-05-04,231,3067
2022-05-05,206,3061
2022-05-06,227,3119
2022-05-07,235,3049
2022-05-08,201,3137
2022-05-09,213,3323
2022-05-10,312,3370
2022-05-11,349,3456
2022-05-12,284,3380
2022-05-13,290,3428
2022-05-14,265,3206
2022-05-15,279,3242
2022-05-16,270,3336
2022-05-17,263,3447
2022-05-18,228,3420
2022-05-19,225,3445
2022-05-20,251,3455
2022-05-21,258,3375
2022-05-22,271,3306
2022-05-23,255,3573
2022-05-24,237,3665
2022-05-25,267,3448
2022-05-26,291,3485
2022-05-27,259,3546
2022-05-28,269,3521
2022-05-29,258,3439
2022-05-30,243,3778
2022-05-31,307,3737
2022-06-01,273,3709
2022-06-02,276,3805
2022-06-03,290,3631
2022-06-04,304,3539
2022-06-05,289,3648
2022-06-06,248,3922
2022-06-07,272,3904
2022-06-08,261,3894
2022-06-09,240,3962
2022-06-10,263,3913
2022-06-11,239,3709
2022-06-12,247,3650
2022-06-13,252,3946
2022-06-14,246,4027
2022-06-15,254,3818
2022-06-16,238,3964
2022-06-17,229,3926
2022-06-18,296,3747
2022-06-19,338,3755
2022-06-20,284,4082
2022-06-21,246,4099
2022-06-22,289,4043
2022-06-23,389,4109
2022-06-24,346,4068
2022-06-25,331,3889
2022-06-26,354,3859
2022-06-27,347,4211
2022-06-28,360,4149
2022-06-29,346,4273
2022-06-30,325,4303
2022-07-01,285,4224
2022-07-02,364,4017
2022-07-03,341,3975
2022-07-04,322,4205
2022-07-05,352,4319
2022-07-06,341,4313
2022-07-07,343,4326
2022-07-08,337,4297
2022-07-09,312,4087
2022-07-10,331,3985
2022-07-11,340,4336
2022-07-12,324,4326
2022-07-13,320,4457
2022-07-14,296,4436
2022-07-15,293,4382
2022-07-16,347,4274
2022-07-17,348,4169
2022-07-18,330,4586
2022-07-19,328,4585
2022-07-20,345,4583
2022-07-21,337,4661
2022-07-22,357,4628
2022-07-23,339,4290
2022-07-24,315,3383
2022-07-25,336,4717
2022-07-26,413,4738
2022-07-27,341,4723
2022-07-28,382,4769
2022-07-29,339,4861
2022-07-30,334,4189
2022-07-31,377,4588
2022-08-01,360,4972
2022-08-02,383,4990
2022-08-03,354,4862
2022-08-04,306,4880
2022-08-05,333,4939
2022-08-06,335,4621
2022-08-07,365,4745
2022-08-08,424,5049
2022-08-09,433,5192
2022-08-10,391,5290
2022-08-11,393,5180
2022-08-12,390,5118
2022-08-13,410,4907
2022-08-14,436,4988
2022-08-15,451,5335
2022-08-16,400,5582
2022-08-17,430,5425
2022-08-18,423,5620
2022-08-19,407,5498
2022-08-20,469,5306
2022-08-21,442,5276
2022-08-22,414,5686
2022-08-23,426,5718
2022-08-24,390,5738
2022-08-25,388,5746
2022-08-26,405,5753
2022-08-27,545,5566
2022-08-28,464,5450
2022-08-29,472,5731
2022-08-30,414,5904
2022-08-31,449,5799
2022-09-01,439,5820
2022-09-02,459,5781
2022-09-03,506,5634
2022-09-04,465,5555
2022-09-05,511,5917
2022-09-06,551,5837
2022-09-07,459,5939
2022-09-08,429,5948
2022-09-09,469,5990
2022-09-10,509,5547
2022-09-11,512,5559
2022-09-12,414,5917
2022-09-13,471,6076
2022-09-14,413,6217
2022-09-15,359,6148
2022-09-16,449,6126
2022-09-17,533,5789
2022-09-18,519,5862
2022-09-19,493,6273
2022-09-20,470,6136
2022-09-21,409,6184
2022-09-22,400,6232
2022-09-23,431,6216
2022-09-24,429,5869
2022-09-25,444,5893
2022-09-26,375,6240
2022-09-27,488,6217
2022-09-28,452,6317
2022-09-29,404,6208
2022-09-30,392,6342
2022-10-01,452,5741
2022-10-02,442,5920
2022-10-03,417,6136
2022-10-04,384,6131
2022-10-05,334,6155
2022-10-06,357,6185
2022-10-07,429,6100
2022-10-08,400,6056
2022-10-09,446,5951
2022-10-10,363,6311
2022-10-11,420,6343
2022-10-12,435,6262
2022-10-13,372,6464
2022-10-14,407,6477
2022-10-15,424,6101
2022-10-16,433,6161
2022-10-17,379,6501
2022-10-18,384,6636
2022-10-19,400,6707
2022-10-20,410,6571
2022-10-21,474,6565
2022-10-22,442,6263
2022-10-23,462,6212
2022-10-24,400,6702
2022-10-25,496,6690
2022-10-26,388,6545
2022-10-27,420,6560
2022-10-28,478,6445
2022-10-29,456,6214
2022-10-30,443,6271
2022-10-31,430,6547
2022-11-01,396,6508
2022-11-02,377,6691
2022-11-03,352,6685
2022-11-04,371,6640
2022-11-05,422,6264
2022-11-06,450,6280
2022-11-07,379,6772
2022-11-08,404,6708
2022-11-09,354,6784
2022-11-10,413,6749
2022-11-11,409,6793
2022-11-12,502,6496
2022-11-13,485,6434
2022-11-14,464,6826
2022-11-15,376,6775
2022-11-16,392,6904
2022-11-17,415,6090
2022-11-18,582,6290
2022-11-19,665,5966
2022-11-20,957,6577
2022-11-21,409,6489
2022-11-22,386,6853
2022-11-23,482,6767
2022-11-24,377,6876
2022-11-25,355,6630
2022-11-26,389,6264
2022-11-27,346,6094
2022-11-28,317,6774
2022-11-29,369,6726
2022-11-30,385,6643
2022-12-01,396,6628
2022-12-02,395,6585
2022-12-03,428,6240
2022-12-04,402,6409
2022-12-05,415,6564
2022-12-06,589,6605
2022-12-07,629,6787
2022-12-08,934,6818
2022-12-09,601,6585
2022-12-10,392,6249
2022-12-11,480,6188
2022-12-12,448,6728
2022-12-13,330,6257
2022-12-14,351,6139
2022-12-15,571,6643
2022-12-16,541,6239
2022-12-17,605,5743
2022-12-18,592,6007
2022-12-19,627,6667
2022-12-20,655,6310
2022-12-21,511,5933
2022-12-22,323,6311
2022-12-23,330,6316
2022-12-24,326,5748
2022-12-25,332,6086
2022-12-26,319,6351
2022-12-27,321,6526
2022-12-28,378,6498
2022-12-29,348,6315
2022-12-30,391,6650
2022-12-31,330,5647
2023-01-01,320,5951
2023-01-02,305,7016
2023-01-03,305,7525
2023-01-04,336,7464
2023-01-05,314,7512
2023-01-06,337,7386
2023-01-07,380,7209
2023-01-08,387,7123
2023-01-09,387,7651
2023-01-10,346,7637
2023-01-11,317,7649
2023-01-12,332,7610
2023-01-13,317,7610
2023-01-14,380,7286
2023-01-15,345,7116
2023-01-16,334,7789
2023-01-17,356,7594
2023-01-18,322,7605
2023-01-19,333,7360
2023-01-20,346,7157
2023-01-21,359,6845
2023-01-22,370,6861
2023-01-23,332,7216
2023-01-24,334,7222
2023-01-25,397,7270
2023-01-26,408,7326
2023-01-27,392,7507
2023-01-28,496,7450
2023-01-29,459,7523
2023-01-30,416,7910
2023-01-31,410,7960
2023-02-01,411,7962
2023-02-02,389,7947
2023-02-03,377,7897
2023-02-04,444,7503
2023-02-05,436,7488
2023-02-06,349,8077
2023-02-07,357,8035
2023-02-08,397,8020
2023-02-09,352,8090
2023-02-10,391,8068
2023-02-11,497,7609
2023-02-12,448,7634
2023-02-13,449,8271
2023-02-14,381,8176
2023-02-15,372,8117
2023-02-16,394,8143
2023-02-17,440,8153
2023-02-18,468,7722
2023-02-19,505,7643
2023-02-20,469,8288
2023-02-21,462,8240
2023-02-22,402,8298
2023-02-23,483,8209
2023-02-24,477,8356
2023-02-25,436,7885
2023-02-26,446,7735
2023-02-27,462,8456
2023-02-28,443,8449
2023-03-01,378,8331
2023-03-02,412,8336
2023-03-03,385,8336
2023-03-04,414,7819
2023-03-05,411,7817
2023-03-06,363,8508
2023-03-07,389,8357
2023-03-08,384,8371
2023-03-09,409,8496
2023-03-10,420,8397
2023-03-11,431,7992
2023-03-12,435,7806
2023-03-13,388,8578
2023-03-14,402,8453
2023-03-15,416,8515
2023-03-16,403,8478
2023-03-17,427,8334
2023-03-18,433,7776
2023-03-19,426,7729
2023-03-20,504,8686
2023-03-21,422,8373
2023-03-22,362,8429
2023-03-23,346,8465
2023-03-24,427,8521
2023-03-25,467,8112
2023-03-26,483,7982
2023-03-27,461,8696
2023-03-28,451,8707
2023-03-29,444,8323
2023-03-30,369,8612
2023-03-31,432,8633
2023-04-01,461,8157
2023-04-02,437,7955
2023-04-03,438,8832
2023-04-04,398,8706
2023-04-05,414,8416
2023-04-06,406,8507
2023-04-07,416,8450
2023-04-08,408,8140
2023-04-09,532,8076
2023-04-10,424,8709
2023-04-11,404,8806
2023-04-12,461,8737
2023-04-13,399,8786
2023-04-14,462,8667
2023-04-15,448,8228
2023-04-16,469,7999
2023-04-17,457,8597
2023-04-18,399,8654
2023-04-19,418,8416
2023-04-20,366,8290
2023-04-21,389,8131
2023-04-22,363,7804
2023-04-23,382,8091
2023-04-24,366,8516
2023-04-25,381,8438
2023-04-26,378,8523
2023-04-27,359,8436
2023-04-28,391,8487
2023-04-29,446,7900
2023-04-30,460,7759
2023-05-01,479,7905
2023-05-02,345,8291
2023-05-03,378,8449
2023-05-04,400,8729
2023-05-05,392,8552
2023-05-06,370,8455
2023-05-07,373,8149
2023-05-08,362,8715
2023-05-09,401,8681
2023-05-10,360,8710
2023-05-11,345,8651
2023-05-12,371,8724
2023-05-13,369,8065
2023-05-14,377,8067
2023-05-15,333,8745
2023-05-16,348,8796
2023-05-17,330,8669
2023-05-18,319,8562
2023-05-19,354,8620
2023-05-20,391,8096
2023-05-21,435,8193
2023-05-22,358,8861
2023-05-23,340,8823
2023-05-24,364,8791
2023-05-25,380,8778
2023-05-26,403,8711
2023-05-27,403,8359
2023-05-28,409,8167
2023-05-29,387,8798
2023-05-30,416,8962
2023-05-31,383,8875
2023-06-01,408,8742
2023-06-02,370,8811
2023-06-03,447,8194
2023-06-04,432,8346
2023-06-05,378,9035
2023-06-06,386,8987
2023-06-07,351,9009
2023-06-08,377,8892
2023-06-09,359,8916
2023-06-10,392,8525
2023-06-11,426,8325
2023-06-12,433,9097
2023-06-13,362,9016
2023-06-14,377,9110
2023-06-15,403,8942
2023-06-16,412,8878
2023-06-17,486,8591
2023-06-18,435,8428
2023-06-19,381,9125
2023-06-20,339,9026
2023-06-21,392,9182
2023-06-22,379,8536
2023-06-23,350,8611
2023-06-24,437,8505
2023-06-25,391,8582
2023-06-26,413,9105
2023-06-27,359,8880
2023-06-28,391,8828
2023-06-29,419,8746
2023-06-30,424,8918
2023-07-01,466,8469
2023-07-02,430,8241
2023-07-03,336,9106
2023-07-04,380,9145
2023-07-05,372,9049
2023-07-06,435,9135
2023-07-07,443,8962
2023-07-08,409,8567
2023-07-09,401,8424
2023-07-10,410,9136
2023-07-11,409,9142
2023-07-12,381,9267
2023-07-13,353,9130
2023-07-14,418,9138
2023-07-15,430,8527
2023-07-16,514,8542
2023-07-17,450,9161
2023-07-18,421,9317
2023-07-19,476,9134
2023-07-20,436,9142
2023-07-21,461,9087
2023-07-22,478,8407
2023-07-23,507,8534
2023-07-24,476,9367
2023-07-25,409,9293
2023-07-26,446,9258
2023-07-27,459,9292
2023-07-28,494,9102
2023-07-29,508,8759
2023-07-30,424,8739
2023-07-31,458,9296
2023-08-01,459,9500
2023-08-02,436,9291
2023-08-03,437,9426
2023-08-04,422,9324
2023-08-05,470,8724
2023-08-06,404,8661
2023-08-07,436,9494
2023-08-08,427,9368
2023-08-09,456,9475
2023-08-10,429,9355
2023-08-11,428,9370
2023-08-12,429,8874
2023-08-13,453,8822
2023-08-14,411,9535
2023-08-15,492,9544
2023-08-16,404,9483
2023-08-17,441,9427
2023-08-18,432,9516
2023-08-19,445,8952
2023-08-20,477,8931
2023-08-21,481,9733
2023-08-22,416,9611
2023-08-23,450,9560
2023-08-24,458,9579
2023-08-25,419,9676
2023-08-26,470,9019
2023-08-27,446,8999
2023-08-28,418,9774
2023-08-29,404,9815
2023-08-30,394,9741
2023-08-31,391,9668
2023-09-01,406,9647
2023-09-02,418,9173
2023-09-03,420,9004
2023-09-04,404,9861
2023-09-05,383,9794
2023-09-06,387,9930
2023-09-07,327,9694
2023-09-08,405,9777
2023-09-09,430,9216
2023-09-10,452,9241
2023-09-11,390,9853
2023-09-12,389,9876
2023-09-13,375,9796
2023-09-14,364,10016
2023-09-15,354,9730
2023-09-16,414,9252
2023-09-17,412,9156
2023-09-18,389,9962
2023-09-19,387,9981
2023-09-20,370,9940
2023-09-21,388,9937
2023-09-22,357,9703
2023-09-23,436,9372
2023-09-24,440,9232
2023-09-25,372,9990
2023-09-26,389,9817
2023-09-27,360,9905
2023-09-28,437,9645
2023-09-29,423,9280
2023-09-30,529,8999
2023-10-01,579,9033
2023-10-02,1065,9465
2023-10-03,919,9614
2023-10-04,560,9553
2023-10-05,394,9632
2023-10-06,415,9600
2023-10-07,398,9614
2023-10-08,523,9466
2023-10-09,712,10349
2023-10-10,390,10191
2023-10-11,360,9975
2023-10-12,391,10392
2023-10-13,398,10081
2023-10-14,433,9533
2023-10-15,413,9766
2023-10-16,422,10559
2023-10-17,454,10341
2023-10-18,496,10288
2023-10-19,503,10443
2023-10-20,480,10504
2023-10-21,539,10133
2023-10-22,534,9901
2023-10-23,495,10852
2023-10-24,482,10808
2023-10-25,430,10724
2023-10-26,470,10749
2023-10-27,564,10720
2023-10-28,577,10190
2023-10-29,529,9780
2023-10-30,494,10600
2023-10-31,473,10605
2023-11-01,492,10791
2023-11-02,465,10837
2023-11-03,484,10475
2023-11-04,526,10039
2023-11-05,15113,9938
2023-11-06,639,10965
2023-11-07,515,10823
2023-11-08,482,10878
2023-11-09,508,10780
2023-11-10,518,10665
2023-11-11,502,10111
2023-11-12,501,9993
2023-11-13,465,10923
2023-11-14,525,11144
2023-11-15,490,11166
2023-11-16,428,11012
2023-11-17,418,10534
2023-11-18,520,10715
2023-11-19,578,10374
2023-11-20,442,11027
2023-11-21,377,10965
2023-11-22,328,10799
2023-11-23,369,10707
2023-11-24,401,10621
2023-11-25,441,10504
2023-11-26,420,11951
2023-11-27,399,12881
2023-11-28,543,12539
2023-11-29,446,12074
2023-11-30,425,13786
2023-12-01,411,11998
2023-12-02,426,10994
2023-12-03,474,10832
2023-12-04,370,12802
2023-12-05,389,11790
2023-12-06,418,12518
2023-12-07,423,11083
2023-12-08,446,11791
2023-12-09,441,10344
2023-12-10,444,10992
2023-12-11,430,11755
2023-12-12,401,11326
2023-12-13,437,9968
2023-12-14,502,9847
2023-12-15,526,11405
2023-12-16,549,10274
2023-12-17,550,10342
2023-12-18,486,10346
2023-12-19,373,11106
2023-12-20,362,10621
2023-12-21,354,10059
2023-12-22,375,9295
2023-12-23,388,9715
2023-12-24,359,9234
2023-12-25,328,10089
2023-12-26,313,10016
2023-12-27,376,9291
2023-12-28,408,10279
2023-12-29,334,10116
2023-12-30,364,9463
2023-12-31,282,9490
2024-01-01,354,9815
2024-01-02,391,10048
2024-01-03,385,10970
2024-01-04,326,9152
2024-01-05,344,10063
2024-01-06,391,9076
2024-01-07,402,8832
2024-01-08,403,10327
2024-01-09,320,10762
2024-01-10,357,9753
2024-01-11,347,9382
2024-01-12,405,10742
2024-01-13,455,9906
2024-01-14,475,10214
2024-01-15,416,10552
2024-01-16,385,10027
2024-01-17,420,11170
2024-01-18,409,10142
2024-01-19,439,10740
2024-01-20,418,9881
2024-01-21,411,9170
2024-01-22,353,11208
2024-01-23,412,10554
2024-01-24,399,9829
2024-01-25,580,9718
2024-01-26,499,9595
2024-01-27,506,9161
2024-01-28,621,8904
2024-01-29,481,9884
2024-01-30,502,11341
2024-01-31,692,10325
2024-02-01,773,9855
2024-02-02,716,9694
2024-02-03,600,9116
2024-02-04,573,8992
2024-02-05,391,9562
2024-02-06,413,10065
2024-02-07,440,10790
2024-02-08,429,9295
2024-02-09,440,8824
2024-02-10,488,8577
2024-02-11,457,8464
2024-02-12,361,8805
2024-02-13,330,8991
2024-02-14,407,8658
2024-02-15,345,9149
2024-02-16,365,9222
2024-02-17,409,9681
2024-02-18,465,10404
2024-02-19,394,10184
2024-02-20,334,9742
2024-02-21,401,9727
2024-02-22,393,10948
2024-02-23,24,10509
2024-02-24,224,9403
2024-02-25,336,9798
2024-02-26,274,10049
2024-02-27,291,9847
2024-02-28,298,9677
2024-02-29,295,9526
2024-03-01,283,9422
2024-03-02,267,9214
2024-03-03,298,8991
2024-03-04,276,9591
2024-03-05,274,9479
2024-03-06,250,9847
2024-03-07,262,11377
2024-03-08,267,9508
2024-03-09,312,9258
2024-03-10,307,9051
2024-03-11,309,9581
2024-03-12,321,9450
2024-03-13,279,9412
2024-03-14,275,9456
2024-03-15,292,9407
2024-03-16,299,8940
2024-03-17,318,10838
2024-03-18,277,10115
2024-03-19,212,9683
2024-03-20,234,9512
2024-03-21,258,9555
2024-03-22,246,9347
2024-03-23,261,8952
2024-03-24,271,8762
2024-03-25,235,9552
2024-03-26,212,9467
2024-03-27,250,9312
2024-03-28,279,10831
2024-03-29,287,10082
2024-03-30,276,8944
2024-03-31,299,8831
2024-04-01,251,9630
2024-04-02,260,9403
2024-04-03,248,9493
2024-04-04,250,9004
2024-04-05,274,8904
2024-04-06,260,8570
2024-04-07,263,10409
2024-04-08,275,10264
2024-04-09,276,9390
2024-04-10,241,8872
2024-04-11,272,9075
2024-04-12,241,9044
2024-04-13,233,8813
2024-04-14,252,8725
2024-04-15,219,9467
2024-04-16,209,9446
2024-04-17,252,9334
2024-04-18,253,9179
2024-04-19,261,9426
2024-04-20,261,8911
2024-04-21,270,8913
2024-04-22,269,9603
2024-04-23,247,9537
2024-04-24,264,9435
2024-04-25,270,9399
2024-04-26,261,9410
2024-04-27,268,8818
2024-04-28,272,8973
2024-04-29,253,9527
2024-04-30,279,9426
2024-05-01,271,8808
2024-05-02,279,9220
2024-05-03,318,9098
2024-05-04,350,11047
2024-05-05,343,9409
2024-05-06,279,10069
2024-05-07,258,9841
2024-05-08,285,9610
2024-05-09,304,9397
2024-05-10,282,9362
2024-05-11,300,9018
2024-05-12,294,8840
2024-05-13,280,9668
2024-05-14,289,9792
2024-05-15,276,9451
2024-05-16,254,9432
2024-05-17,287,11351
2024-05-18,270,9599
2024-05-19,284,9033
2024-05-20,260,9856
2024-05-21,260,9563
2024-05-22,268,9596
2024-05-23,227,9499
2024-05-24,255,9213
2024-05-25,252,8935
2024-05-26,278,8899
2024-05-27,272,9607
2024-05-28,244,9435
2024-05-29,233,9960
2024-05-30,242,11429
2024-05-31,231,9931
2024-06-01,281,9058
2024-06-02,182,6553
